Time,TemperatureF,DewpointF,PressureIn,WindDirection,WindDirectionDegrees,WindSpeedMPH,WindSpeedGustMPH,Humidity,HourlyPrecipIn,Conditions,Clouds,dailyrainin,SoftwareType,DateUTC
2013-06-20 00:00:00,58.3,9.2,29.34,NW,312,0.0,11.0,14,0.00,,,0.00,Wunderground v.1.15,2013-06-20 06:00:00,
2013-06-20 00:05:00,57.6,8.7,29.34,NW,312,0.0,11.0,14,0.00,,,0.00,Wunderground v.1.15,2013-06-20 06:05:00,
2013-06-20 00:15:00,56.4,7.7,29.34,NW,312,0.0,11.0,14,0.00,,,0.00,Wunderground v.1.15,2013-06-20 06:15:00,
2013-06-20 00:20:00,55.8,7.2,29.34,NW,312,0.0,11.0,14,0.00,,,0.00,Wunderground v.1.15,2013-06-20 06:20:00,
2013-06-20 00:30:00,55.1,6.7,29.34,NW,311,0.0,11.0,14,0.00,,,0.00,Wunderground v.1.15,2013-06-20 06:30:00,
2013-06-20 00:35:00,55.2,8.3,29.34,NW,311,0.0,11.0,15,0.00,,,0.00,Wunderground v.1.15,2013-06-20 06:35:00,
2013-06-20 00:40:00,55.3,6.8,29.34,NW,311,0.0,11.0,14,0.00,,,0.00,Wunderground v.1.15,2013-06-20 06:40:00,
2013-06-20 00:45:00,55.1,9.6,29.34,NW,311,0.0,11.0,16,0.00,,,0.00,Wunderground v.1.15,2013-06-20 06:45:00,
2013-06-20 00:50:00,54.8,9.4,29.34,NW,311,0.0,11.0,16,0.00,,,0.00,Wunderground v.1.15,2013-06-20 06:50:00,
2013-06-20 00:55:00,54.4,10.4,29.34,NW,311,0.0,11.0,17,0.00,,,0.00,Wunderground v.1.15,2013-06-20 06:55:00,
2013-06-20 01:00:00,54.1,11.5,29.33,NW,311,0.0,11.0,18,0.00,,,0.00,Wunderground v.1.15,2013-06-20 07:00:00,
2013-06-20 01:05:00,53.7,12.4,29.33,NW,311,0.0,11.0,19,0.00,,,0.00,Wunderground v.1.15,2013-06-20 07:05:00,
2013-06-20 01:10:00,52.9,15.0,29.34,NW,311,0.0,11.0,22,0.00,,,0.00,Wunderground v.1.15,2013-06-20 07:10:00,
2013-06-20 01:15:00,52.4,11.3,29.33,NW,311,0.0,11.0,19,0.00,,,0.00,Wunderground v.1.15,2013-06-20 07:15:00,
2013-06-20 01:20:00,52.4,10.1,29.33,NW,311,0.0,11.0,18,0.00,,,0.00,Wunderground v.1.15,2013-06-20 07:20:00,
2013-06-20 01:25:00,52.5,8.9,29.33,NW,311,0.0,11.0,17,0.00,,,0.00,Wunderground v.1.15,2013-06-20 07:25:00,
2013-06-20 01:30:00,52.9,7.8,29.33,NW,311,0.0,11.0,16,0.00,,,0.00,Wunderground v.1.15,2013-06-20 07:30:00,
2013-06-20 01:35:00,53.9,8.7,29.33,NW,311,0.0,11.0,16,0.00,,,0.00,Wunderground v.1.15,2013-06-20 07:35:00,
2013-06-20 01:40:00,54.5,10.5,29.33,NW,311,0.0,11.0,17,0.00,,,0.00,Wunderground v.1.15,2013-06-20 07:40:00,
2013-06-20 01:45:00,54.4,10.4,29.33,NW,311,0.0,11.0,17,0.00,,,0.00,Wunderground v.1.15,2013-06-20 07:45:00,
2013-06-20 01:50:00,54.1,10.2,29.33,NW,311,0.0,11.0,17,0.00,,,0.00,Wunderground v.1.15,2013-06-20 07:50:00,
2013-06-20 01:55:00,53.7,11.1,29.33,NW,311,0.0,11.0,18,0.00,,,0.00,Wunderground v.1.15,2013-06-20 07:55:00,
2013-06-20 02:00:00,53.2,9.4,29.33,NW,311,0.0,11.0,17,0.00,,,0.00,Wunderground v.1.15,2013-06-20 08:00:00,
2013-06-20 02:05:00,53.4,9.6,29.33,NW,311,0.0,11.0,17,0.00,,,0.00,Wunderground v.1.15,2013-06-20 08:05:00,
2013-06-20 02:10:00,53.7,7.1,29.33,NW,311,0.0,11.0,15,0.00,,,0.00,Wunderground v.1.15,2013-06-20 08:10:00,
2013-06-20 02:15:00,54.4,10.4,29.33,NW,311,0.0,11.0,17,0.00,,,0.00,Wunderground v.1.15,2013-06-20 08:15:00,
2013-06-20 02:20:00,54.5,9.1,29.33,NW,311,0.0,11.0,16,0.00,,,0.00,Wunderground v.1.15,2013-06-20 08:20:00,
2013-06-20 02:25:00,54.2,12.8,29.33,NW,311,0.0,11.0,19,0.00,,,0.00,Wunderground v.1.15,2013-06-20 08:25:00,
2013-06-20 02:30:00,53.3,10.8,29.33,NW,311,0.0,11.0,18,0.00,,,0.00,Wunderground v.1.15,2013-06-20 08:30:00,
2013-06-20 02:35:00,52.4,8.8,29.33,NW,311,0.0,11.0,17,0.00,,,0.00,Wunderground v.1.15,2013-06-20 08:35:00,
2013-06-20 02:40:00,52.0,10.9,29.33,NW,311,0.0,11.0,19,0.00,,,0.00,Wunderground v.1.15,2013-06-20 08:40:00,
2013-06-20 02:45:00,51.4,10.4,29.33,NW,311,0.0,11.0,19,0.00,,,0.00,Wunderground v.1.15,2013-06-20 08:45:00,
2013-06-20 02:50:00,51.0,10.1,29.33,NW,311,0.0,11.0,19,0.00,,,0.00,Wunderground v.1.15,2013-06-20 08:50:00,
2013-06-20 02:55:00,50.5,10.9,29.33,NW,311,0.0,11.0,20,0.00,,,0.00,Wunderground v.1.15,2013-06-20 08:55:00,
2013-06-20 03:00:00,50.0,9.3,29.33,NW,311,0.0,11.0,19,0.00,,,0.00,Wunderground v.1.15,2013-06-20 09:00:00,
2013-06-20 03:10:00,49.1,9.7,29.33,NW,311,0.0,11.0,20,0.00,,,0.00,Wunderground v.1.15,2013-06-20 09:10:00,
2013-06-20 03:15:00,49.0,11.7,29.33,NW,311,0.0,11.0,22,0.00,,,0.00,Wunderground v.1.15,2013-06-20 09:15:00,
2013-06-20 03:20:00,48.7,9.4,29.33,NW,311,0.0,11.0,20,0.00,,,0.00,Wunderground v.1.15,2013-06-20 09:20:00,
2013-06-20 03:30:00,48.3,10.1,29.33,NW,311,0.0,11.0,21,0.00,,,0.00,Wunderground v.1.15,2013-06-20 09:30:00,
2013-06-20 03:35:00,48.3,9.0,29.33,North,351,0.0,11.0,20,0.00,,,0.00,Wunderground v.1.15,2013-06-20 09:35:00,
2013-06-20 03:40:00,48.3,11.2,29.33,North,351,0.0,11.0,22,0.00,,,0.00,Wunderground v.1.15,2013-06-20 09:40:00,
2013-06-20 03:45:00,48.2,8.9,29.32,North,351,0.0,11.0,20,0.00,,,0.00,Wunderground v.1.15,2013-06-20 09:45:00,
2013-06-20 03:50:00,48.0,13.8,29.33,North,351,0.0,11.0,25,0.00,,,0.00,Wunderground v.1.15,2013-06-20 09:50:00,
2013-06-20 03:55:00,47.3,11.3,29.33,North,351,0.0,11.0,23,0.00,,,0.00,Wunderground v.1.15,2013-06-20 09:55:00,
2013-06-20 04:00:00,47.0,10.1,29.32,North,351,0.0,11.0,22,0.00,,,0.00,Wunderground v.1.15,2013-06-20 10:00:00,
2013-06-20 04:05:00,46.8,12.8,29.33,North,351,0.0,11.0,25,0.00,,,0.00,Wunderground v.1.15,2013-06-20 10:05:00,
2013-06-20 04:10:00,46.4,12.4,29.33,North,351,0.0,11.0,25,0.00,,,0.00,Wunderground v.1.15,2013-06-20 10:10:00,
2013-06-20 04:15:00,46.1,11.2,29.33,North,351,0.0,11.0,24,0.00,,,0.00,Wunderground v.1.15,2013-06-20 10:15:00,
2013-06-20 04:20:00,46.0,11.2,29.33,North,351,0.0,11.0,24,0.00,,,0.00,Wunderground v.1.15,2013-06-20 10:20:00,
2013-06-20 04:25:00,45.9,11.1,29.34,North,351,0.0,11.0,24,0.00,,,0.00,Wunderground v.1.15,2013-06-20 10:25:00,
2013-06-20 04:35:00,45.8,10.0,29.33,North,351,0.0,11.0,23,0.00,,,0.00,Wunderground v.1.15,2013-06-20 10:35:00,
2013-06-20 04:40:00,45.6,12.6,29.34,North,351,0.0,11.0,26,0.00,,,0.00,Wunderground v.1.15,2013-06-20 10:40:00,
2013-06-20 04:45:00,45.1,11.3,29.34,North,351,0.0,11.0,25,0.00,,,0.00,Wunderground v.1.15,2013-06-20 10:45:00,
2013-06-20 04:50:00,44.7,11.0,29.34,North,351,0.0,11.0,25,0.00,,,0.00,Wunderground v.1.15,2013-06-20 10:50:00,
2013-06-20 04:55:00,44.5,11.7,29.35,North,351,0.0,11.0,26,0.00,,,0.00,Wunderground v.1.15,2013-06-20 10:55:00,
2013-06-20 05:00:00,44.4,10.7,29.35,North,351,0.0,11.0,25,0.00,,,0.00,Wunderground v.1.15,2013-06-20 11:00:00,
2013-06-20 05:05:00,44.7,12.7,29.35,North,351,0.0,11.0,27,0.00,,,0.00,Wunderground v.1.15,2013-06-20 11:05:00,
2013-06-20 05:10:00,45.2,11.4,29.35,North,351,0.0,11.0,25,0.00,,,0.00,Wunderground v.1.15,2013-06-20 11:10:00,
2013-06-20 05:15:00,45.7,10.9,29.35,North,351,0.0,11.0,24,0.00,,,0.00,Wunderground v.1.15,2013-06-20 11:15:00,
2013-06-20 05:20:00,46.2,11.3,29.36,North,351,0.0,11.0,24,0.00,,,0.00,Wunderground v.1.15,2013-06-20 11:20:00,
2013-06-20 05:25:00,46.8,11.8,29.36,North,351,0.0,11.0,24,0.00,,,0.00,Wunderground v.1.15,2013-06-20 11:25:00,
2013-06-20 05:30:00,47.7,9.6,29.36,North,351,0.0,11.0,21,0.00,,,0.00,Wunderground v.1.15,2013-06-20 11:30:00,
2013-06-20 05:40:00,49.3,9.9,29.36,North,351,0.0,11.0,20,0.00,,,0.00,Wunderground v.1.15,2013-06-20 11:40:00,
2013-06-20 05:50:00,49.9,9.2,29.37,North,351,0.0,11.0,19,0.00,,,0.00,Wunderground v.1.15,2013-06-20 11:50:00,
2013-06-20 06:00:00,49.5,12.2,29.37,North,351,0.0,11.0,22,0.00,,,0.00,Wunderground v.1.15,2013-06-20 12:00:00,
2013-06-20 06:05:00,49.0,10.7,29.37,North,351,0.0,11.0,21,0.00,,,0.00,Wunderground v.1.15,2013-06-20 12:05:00,
2013-06-20 06:10:00,48.9,10.6,29.37,North,351,0.0,11.0,21,0.00,,,0.00,Wunderground v.1.15,2013-06-20 12:10:00,
2013-06-20 06:15:00,49.3,9.9,29.37,NW,321,0.0,11.0,20,0.00,,,0.00,Wunderground v.1.15,2013-06-20 12:15:00,
2013-06-20 06:20:00,49.6,10.1,29.37,NW,321,0.0,11.0,20,0.00,,,0.00,Wunderground v.1.15,2013-06-20 12:20:00,
2013-06-20 06:25:00,49.6,11.2,29.37,NW,321,0.0,11.0,21,0.00,,,0.00,Wunderground v.1.15,2013-06-20 12:25:00,
2013-06-20 06:35:00,49.9,13.5,29.38,NW,321,0.0,11.0,23,0.00,,,0.00,Wunderground v.1.15,2013-06-20 12:35:00,
2013-06-20 06:40:00,49.5,13.2,29.37,NW,321,0.0,11.0,23,0.00,,,0.00,Wunderground v.1.15,2013-06-20 12:40:00,
2013-06-20 06:45:00,49.4,15.0,29.38,NW,321,0.0,11.0,25,0.00,,,0.00,Wunderground v.1.15,2013-06-20 12:45:00,
2013-06-20 06:50:00,49.7,14.3,29.38,NW,321,0.0,11.0,24,0.00,,,0.00,Wunderground v.1.15,2013-06-20 12:50:00,
2013-06-20 06:55:00,50.5,15.9,29.38,NW,321,0.0,11.0,25,0.00,,,0.00,Wunderground v.1.15,2013-06-20 12:55:00,
2013-06-20 07:10:00,55.0,19.8,29.38,NW,312,0.0,11.0,25,0.00,,,0.00,Wunderground v.1.15,2013-06-20 13:10:00,
2013-06-20 07:15:00,56.6,13.5,29.37,WNW,287,0.0,11.0,18,0.00,,,0.00,Wunderground v.1.15,2013-06-20 13:15:00,
2013-06-20 07:20:00,58.1,20.4,29.38,WNW,287,0.0,11.0,23,0.00,,,0.00,Wunderground v.1.15,2013-06-20 13:20:00,
2013-06-20 07:25:00,59.5,13.2,29.37,WNW,287,0.0,11.0,16,0.00,,,0.00,Wunderground v.1.15,2013-06-20 13:25:00,
2013-06-20 07:30:00,60.9,12.9,29.38,WNW,287,0.0,11.0,15,0.00,,,0.00,Wunderground v.1.15,2013-06-20 13:30:00,
2013-06-20 07:35:00,62.1,12.3,29.38,WNW,286,0.0,11.0,14,0.00,,,0.00,Wunderground v.1.15,2013-06-20 13:35:00,
2013-06-20 07:45:00,63.4,11.6,29.38,West,270,0.0,11.0,13,0.00,,,0.00,Wunderground v.1.15,2013-06-20 13:45:00,
2013-06-20 07:50:00,64.1,13.9,29.38,West,271,0.0,11.0,14,0.00,,,0.00,Wunderground v.1.15,2013-06-20 13:50:00,
2013-06-20 07:55:00,64.7,12.7,29.39,West,280,0.0,11.0,13,0.00,,,0.00,Wunderground v.1.15,2013-06-20 13:55:00,
2013-06-20 08:00:00,65.2,13.0,29.39,West,269,0.0,11.0,13,0.00,,,0.00,Wunderground v.1.15,2013-06-20 14:00:00,
2013-06-20 08:10:00,65.8,13.5,29.38,NNE,19,0.0,11.0,13,0.00,,,0.00,Wunderground v.1.15,2013-06-20 14:10:00,
2013-06-20 08:15:00,66.0,11.9,29.38,NW,321,0.0,11.0,12,0.00,,,0.00,Wunderground v.1.15,2013-06-20 14:15:00,
2013-06-20 08:20:00,66.1,11.9,29.38,ESE,112,1.0,1.0,12,0.00,,,0.00,Wunderground v.1.15,2013-06-20 14:20:00,
2013-06-20 08:25:00,66.4,12.2,29.38,South,183,1.0,11.0,12,0.00,,,0.00,Wunderground v.1.15,2013-06-20 14:25:00,
2013-06-20 08:30:00,66.5,12.3,29.38,South,188,1.0,1.0,12,0.00,,,0.00,Wunderground v.1.15,2013-06-20 14:30:00,
2013-06-20 08:40:00,66.8,12.5,29.39,North,360,1.0,1.0,12,0.00,,,0.00,Wunderground v.1.15,2013-06-20 14:40:00,
2013-06-20 08:45:00,67.0,10.7,29.38,West,273,1.0,4.0,11,0.00,,,0.00,Wunderground v.1.15,2013-06-20 14:45:00,
2013-06-20 08:50:00,66.8,12.5,29.38,SSE,160,1.0,1.0,12,0.00,,,0.00,Wunderground v.1.15,2013-06-20 14:50:00,
2013-06-20 08:55:00,67.4,13.0,29.39,NNW,348,1.0,3.0,12,0.00,,,0.00,Wunderground v.1.15,2013-06-20 14:55:00,
2013-06-20 09:05:00,67.7,13.2,29.38,WNW,292,1.0,11.0,12,0.00,,,0.00,Wunderground v.1.15,2013-06-20 15:05:00,
2013-06-20 09:10:00,67.9,13.3,29.38,NE,51,1.0,1.0,12,0.00,,,0.00,Wunderground v.1.15,2013-06-20 15:10:00,
2013-06-20 09:20:00,68.6,11.9,29.38,WSW,255,2.0,2.0,11,0.00,,,0.00,Wunderground v.1.15,2013-06-20 15:20:00,
2013-06-20 09:25:00,68.7,14.0,29.37,SSE,165,2.0,11.0,12,0.00,,,0.00,Wunderground v.1.15,2013-06-20 15:25:00,
2013-06-20 09:30:00,68.9,12.2,29.38,South,187,2.0,2.0,11,0.00,,,0.00,Wunderground v.1.15,2013-06-20 15:30:00,
2013-06-20 09:35:00,69.2,12.4,29.37,North,5,2.0,11.0,11,0.00,,,0.00,Wunderground v.1.15,2013-06-20 15:35:00,
2013-06-20 09:40:00,69.4,14.5,29.37,WSW,242,2.0,11.0,12,0.00,,,0.00,Wunderground v.1.15,2013-06-20 15:40:00,
2013-06-20 09:44:00,69.6,14.7,29.37,WNW,293,2.0,11.0,12,0.00,,,0.00,Wunderground v.1.15,2013-06-20 15:44:00,
2013-06-20 09:50:00,69.5,12.6,29.37,WNW,284,3.0,11.0,11,0.00,,,0.00,Wunderground v.1.15,2013-06-20 15:50:00,
2013-06-20 10:00:00,70.2,15.1,29.37,ENE,78,2.0,11.0,12,0.00,,,0.00,Wunderground v.1.15,2013-06-20 16:00:00,
2013-06-20 10:05:00,70.6,13.5,29.37,NE,42,1.0,11.0,11,0.00,,,0.00,Wunderground v.1.15,2013-06-20 16:05:00,
2013-06-20 10:10:00,70.5,13.4,29.36,WNW,292,2.0,2.0,11,0.00,,,0.00,Wunderground v.1.15,2013-06-20 16:10:00,
2013-06-20 10:15:00,70.6,13.5,29.37,SE,133,2.0,11.0,11,0.00,,,0.00,Wunderground v.1.15,2013-06-20 16:15:00,
2013-06-20 10:20:00,70.8,13.6,29.36,SE,146,2.0,2.0,11,0.00,,,0.00,Wunderground v.1.15,2013-06-20 16:20:00,
2013-06-20 10:24:00,71.4,14.1,29.36,SE,132,2.0,4.0,11,0.00,,,0.00,Wunderground v.1.15,2013-06-20 16:24:00,
2013-06-20 10:30:00,71.5,14.2,29.37,East,82,3.0,3.0,11,0.00,,,0.00,Wunderground v.1.15,2013-06-20 16:30:00,
2013-06-20 10:35:00,71.1,13.9,29.37,ENE,57,3.0,11.0,11,0.00,,,0.00,Wunderground v.1.15,2013-06-20 16:35:00,
2013-06-20 10:45:00,70.9,13.7,29.37,NE,52,3.0,11.0,11,0.00,,,0.00,Wunderground v.1.15,2013-06-20 16:45:00,
2013-06-20 10:55:00,71.3,16.0,29.37,ENE,74,3.0,11.0,12,0.00,,,0.00,Wunderground v.1.15,2013-06-20 16:55:00,
2013-06-20 11:00:00,72.0,14.6,29.37,West,263,2.0,11.0,11,0.00,,,0.00,Wunderground v.1.15,2013-06-20 17:00:00,
2013-06-20 11:10:00,72.7,12.9,29.37,East,96,2.0,11.0,10,0.00,,,0.00,Wunderground v.1.15,2013-06-20 17:10:00,
2013-06-20 11:15:00,72.8,10.6,29.37,West,270,2.0,11.0,9,0.00,,,0.00,Wunderground v.1.15,2013-06-20 17:15:00,
2013-06-20 11:20:00,72.8,10.6,29.37,ESE,110,3.0,11.0,9,0.00,,,0.00,Wunderground v.1.15,2013-06-20 17:20:00,
2013-06-20 11:25:00,72.7,12.9,29.37,West,276,4.0,11.0,10,0.00,,,0.00,Wunderground v.1.15,2013-06-20 17:25:00,
2013-06-20 11:35:00,73.0,10.8,29.37,SSE,149,3.0,11.0,9,0.00,,,0.00,Wunderground v.1.15,2013-06-20 17:35:00,
2013-06-20 11:40:00,72.9,10.7,29.37,North,355,3.0,3.0,9,0.00,,,0.00,Wunderground v.1.15,2013-06-20 17:40:00,
2013-06-20 11:45:00,72.9,10.7,29.37,NNE,13,2.0,10.0,9,0.00,,,0.00,Wunderground v.1.15,2013-06-20 17:45:00,
2013-06-20 11:50:00,73.1,10.8,29.37,NNW,345,2.0,2.0,9,0.00,,,0.00,Wunderground v.1.15,2013-06-20 17:50:00,
2013-06-20 11:55:00,73.0,13.1,29.37,SW,229,3.0,3.0,10,0.00,,,0.00,Wunderground v.1.15,2013-06-20 17:55:00,
2013-06-20 12:00:00,73.2,10.9,29.37,North,5,2.0,2.0,9,0.00,,,0.00,Wunderground v.1.15,2013-06-20 18:00:00,
2013-06-20 12:05:00,73.6,11.2,29.37,SSW,199,2.0,11.0,9,0.00,,,0.00,Wunderground v.1.15,2013-06-20 18:05:00,
2013-06-20 12:10:00,73.5,11.1,29.36,NNW,332,2.0,11.0,9,0.00,,,0.00,Wunderground v.1.15,2013-06-20 18:10:00,
2013-06-20 12:15:00,73.8,11.4,29.37,NW,305,3.0,11.0,9,0.00,,,0.00,Wunderground v.1.15,2013-06-20 18:15:00,
2013-06-20 12:20:00,74.3,11.8,29.36,South,188,3.0,3.0,9,0.00,,,0.00,Wunderground v.1.15,2013-06-20 18:20:00,
2013-06-20 12:30:00,74.6,12.0,29.37,SE,128,3.0,3.0,9,0.00,,,0.00,Wunderground v.1.15,2013-06-20 18:30:00,
2013-06-20 12:40:00,75.4,9.9,29.36,WSW,253,2.0,11.0,8,0.00,,,0.00,Wunderground v.1.15,2013-06-20 18:40:00,
2013-06-20 12:45:00,75.6,10.1,29.36,SE,130,2.0,11.0,8,0.00,,,0.00,Wunderground v.1.15,2013-06-20 18:45:00,
2013-06-20 12:50:00,75.8,10.2,29.36,SE,142,3.0,11.0,8,0.00,,,0.00,Wunderground v.1.15,2013-06-20 18:50:00,
2013-06-20 12:55:00,75.7,10.2,29.36,NW,319,3.0,11.0,8,0.00,,,0.00,Wunderground v.1.15,2013-06-20 18:55:00,
2013-06-20 13:00:00,76.3,10.6,29.36,ESE,108,3.0,11.0,8,0.00,,,0.00,Wunderground v.1.15,2013-06-20 19:00:00,
2013-06-20 13:05:00,76.4,10.7,29.36,SSE,155,3.0,11.0,8,0.00,,,0.00,Wunderground v.1.15,2013-06-20 19:05:00,
2013-06-20 13:10:00,76.8,8.0,29.36,South,190,3.0,3.0,7,0.00,,,0.00,Wunderground v.1.15,2013-06-20 19:10:00,
2013-06-20 13:15:00,76.2,7.5,29.36,SE,132,3.0,11.0,7,0.00,,,0.00,Wunderground v.1.15,2013-06-20 19:15:00,
2013-06-20 13:20:00,75.9,7.3,29.36,SE,136,4.0,4.0,7,0.00,,,0.00,Wunderground v.1.15,2013-06-20 19:20:00,
2013-06-20 13:30:00,76.0,7.4,29.36,East,94,3.0,3.0,7,0.00,,,0.00,Wunderground v.1.15,2013-06-20 19:30:00,
2013-06-20 13:35:00,76.2,7.5,29.35,SSW,194,3.0,6.0,7,0.00,,,0.00,Wunderground v.1.15,2013-06-20 19:35:00,
2013-06-20 13:40:00,76.4,7.7,29.35,SE,139,4.0,11.0,7,0.00,,,0.00,Wunderground v.1.15,2013-06-20 19:40:00,
2013-06-20 13:50:00,75.9,3.9,29.35,SSW,207,4.0,4.0,6,0.00,,,0.00,Wunderground v.1.15,2013-06-20 19:50:00,
2013-06-20 14:00:00,76.2,10.5,29.35,SE,129,4.0,11.0,8,0.00,,,0.00,Wunderground v.1.15,2013-06-20 20:00:00,
2013-06-20 14:10:00,76.7,7.9,29.34,SSE,150,4.0,11.0,7,0.00,,,0.00,Wunderground v.1.15,2013-06-20 20:10:00,
2013-06-20 14:20:00,76.5,7.8,29.34,ESE,123,7.0,11.0,7,0.00,,,0.00,Wunderground v.1.15,2013-06-20 20:20:00,
2013-06-20 14:25:00,77.1,4.8,29.33,SE,134,5.0,11.0,6,0.00,,,0.00,Wunderground v.1.15,2013-06-20 20:25:00,
2013-06-20 14:30:00,78.1,5.5,29.33,SE,125,4.0,4.0,6,0.00,,,0.00,Wunderground v.1.15,2013-06-20 20:30:00,
2013-06-20 14:35:00,78.8,6.0,29.33,SSE,159,4.0,5.0,6,0.00,,,0.00,Wunderground v.1.15,2013-06-20 20:35:00,
2013-06-20 14:40:00,78.7,6.0,29.34,SSE,165,3.0,11.0,6,0.00,,,0.00,Wunderground v.1.15,2013-06-20 20:40:00,
2013-06-20 14:45:00,78.1,5.5,29.33,ESE,103,3.0,11.0,6,0.00,,,0.00,Wunderground v.1.15,2013-06-20 20:45:00,
2013-06-20 14:55:00,78.5,1.9,29.33,SSW,192,3.0,11.0,5,0.00,,,0.00,Wunderground v.1.15,2013-06-20 20:55:00,
2013-06-20 15:00:00,78.0,1.5,29.33,East,92,4.0,4.0,5,0.00,,,0.00,Wunderground v.1.15,2013-06-20 21:00:00,
2013-06-20 15:05:00,78.0,-3.2,29.33,SE,139,4.0,11.0,4,0.00,,,0.00,Wunderground v.1.15,2013-06-20 21:05:00,
2013-06-20 15:10:00,77.9,-3.3,29.33,NNW,333,3.0,11.0,4,0.00,,,0.00,Wunderground v.1.15,2013-06-20 21:10:00,
2013-06-20 15:15:00,77.5,-3.6,29.33,ESE,123,4.0,11.0,4,0.00,,,0.00,Wunderground v.1.15,2013-06-20 21:15:00,
2013-06-20 15:20:00,77.6,-3.5,29.33,ESE,107,4.0,11.0,4,0.00,,,0.00,Wunderground v.1.15,2013-06-20 21:20:00,
2013-06-20 15:25:00,77.3,-3.7,29.33,ESE,106,3.0,11.0,4,0.00,,,0.00,Wunderground v.1.15,2013-06-20 21:25:00,
2013-06-20 15:30:00,77.0,0.8,29.33,South,173,4.0,11.0,5,0.00,,,0.00,Wunderground v.1.15,2013-06-20 21:30:00,
2013-06-20 15:40:00,76.5,4.4,29.32,SSE,157,3.0,12.0,6,0.00,,,0.00,Wunderground v.1.15,2013-06-20 21:40:00,
2013-06-20 15:45:00,76.7,0.6,29.32,SE,129,3.0,12.0,5,0.00,,,0.00,Wunderground v.1.15,2013-06-20 21:45:00,
2013-06-20 15:50:00,76.7,0.6,29.32,SSE,153,4.0,4.0,5,0.00,,,0.00,Wunderground v.1.15,2013-06-20 21:50:00,
2013-06-20 15:55:00,76.5,-4.3,29.33,East,96,5.0,6.0,4,0.00,,,0.00,Wunderground v.1.15,2013-06-20 21:55:00,
2013-06-20 16:00:00,76.3,0.3,29.32,South,188,4.0,4.0,5,0.00,,,0.00,Wunderground v.1.15,2013-06-20 22:00:00,
2013-06-20 16:05:00,76.3,0.3,29.32,SE,128,3.0,6.0,5,0.00,,,0.00,Wunderground v.1.15,2013-06-20 22:05:00,
2013-06-20 16:10:00,76.3,0.3,29.32,NNW,342,3.0,3.0,5,0.00,,,0.00,Wunderground v.1.15,2013-06-20 22:10:00,
2013-06-20 16:15:00,76.5,0.4,29.32,ESE,110,3.0,11.0,5,0.00,,,0.00,Wunderground v.1.15,2013-06-20 22:15:00,
2013-06-20 16:20:00,76.3,4.2,29.33,SE,132,4.0,11.0,6,0.00,,,0.00,Wunderground v.1.15,2013-06-20 22:20:00,
2013-06-20 16:25:00,76.1,0.2,29.32,SE,140,4.0,11.0,5,0.00,,,0.00,Wunderground v.1.15,2013-06-20 22:25:00,
2013-06-20 16:30:00,76.1,0.2,29.33,NW,314,4.0,4.0,5,0.00,,,0.00,Wunderground v.1.15,2013-06-20 22:30:00,
2013-06-20 16:35:00,75.9,0.0,29.33,NE,36,3.0,11.0,5,0.00,,,0.00,Wunderground v.1.15,2013-06-20 22:35:00,
2013-06-20 16:45:00,75.5,-0.3,29.32,SSE,150,3.0,11.0,5,0.00,,,0.00,Wunderground v.1.15,2013-06-20 22:45:00,
2013-06-20 16:50:00,75.3,-0.4,29.32,NE,43,3.0,3.0,5,0.00,,,0.00,Wunderground v.1.15,2013-06-20 22:50:00,
2013-06-20 16:55:00,75.5,-0.3,29.32,SE,144,3.0,6.0,5,0.00,,,0.00,Wunderground v.1.15,2013-06-20 22:55:00,
2013-06-20 17:00:00,75.7,3.8,29.32,ESE,102,3.0,3.0,6,0.00,,,0.00,Wunderground v.1.15,2013-06-20 23:00:00,
2013-06-20 17:05:00,75.7,3.8,29.32,NNE,13,3.0,11.0,6,0.00,,,0.00,Wunderground v.1.15,2013-06-20 23:05:00,
2013-06-20 17:10:00,75.6,3.7,29.32,ESE,121,3.0,3.0,6,0.00,,,0.00,Wunderground v.1.15,2013-06-20 23:10:00,
2013-06-20 17:15:00,75.6,3.7,29.32,SSE,155,3.0,4.0,6,0.00,,,0.00,Wunderground v.1.15,2013-06-20 23:15:00,
2013-06-20 17:25:00,75.0,3.3,29.32,NE,45,3.0,11.0,6,0.00,,,0.00,Wunderground v.1.15,2013-06-20 23:25:00,
2013-06-20 17:35:00,74.4,2.9,29.32,SSE,150,3.0,11.0,6,0.00,,,0.00,Wunderground v.1.15,2013-06-20 23:35:00,
2013-06-20 17:45:00,74.0,2.6,29.32,East,80,3.0,3.0,6,0.00,,,0.00,Wunderground v.1.15,2013-06-20 23:45:00,
2013-06-20 17:50:00,73.9,2.5,29.32,South,169,3.0,11.0,6,0.00,,,0.00,Wunderground v.1.15,2013-06-20 23:50:00,
2013-06-20 18:00:00,73.5,5.6,29.32,NW,323,4.0,4.0,7,0.00,,,0.00,Wunderground v.1.15,2013-06-21 00:00:00,
2013-06-20 18:10:00,73.4,5.5,29.32,SSE,161,3.0,11.0,7,0.00,,,0.00,Wunderground v.1.15,2013-06-21 00:10:00,
2013-06-20 18:15:00,73.2,5.3,29.32,North,355,2.0,11.0,7,0.00,,,0.00,Wunderground v.1.15,2013-06-21 00:15:00,
2013-06-20 18:20:00,73.1,5.3,29.32,SSE,150,2.0,2.0,7,0.00,,,0.00,Wunderground v.1.15,2013-06-21 00:20:00,
2013-06-20 18:25:00,73.0,5.2,29.31,ENE,58,1.0,11.0,7,0.00,,,0.00,Wunderground v.1.15,2013-06-21 00:25:00,
2013-06-20 18:30:00,72.8,5.0,29.31,SE,127,1.0,1.0,7,0.00,,,0.00,Wunderground v.1.15,2013-06-21 00:30:00,
2013-06-20 18:35:00,72.7,5.0,29.32,SSE,165,2.0,9.0,7,0.00,,,0.00,Wunderground v.1.15,2013-06-21 00:35:00,
2013-06-20 18:40:00,72.7,5.0,29.32,SSE,167,2.0,11.0,7,0.00,,,0.00,Wunderground v.1.15,2013-06-21 00:40:00,
2013-06-20 18:45:00,72.6,4.9,29.31,SSE,153,3.0,11.0,7,0.00,,,0.00,Wunderground v.1.15,2013-06-21 00:45:00,
2013-06-20 18:55:00,72.4,4.7,29.31,NE,40,1.0,11.0,7,0.00,,,0.00,Wunderground v.1.15,2013-06-21 00:55:00,
2013-06-20 19:00:00,72.5,4.8,29.31,SSE,157,2.0,2.0,7,0.00,,,0.00,Wunderground v.1.15,2013-06-21 01:00:00,
2013-06-20 19:05:00,72.4,4.7,29.31,ESE,113,1.0,11.0,7,0.00,,,0.00,Wunderground v.1.15,2013-06-21 01:05:00,
2013-06-20 19:10:00,72.4,4.7,29.31,West,274,1.0,1.0,7,0.00,,,0.00,Wunderground v.1.15,2013-06-21 01:10:00,
2013-06-20 19:15:00,72.3,4.7,29.31,West,261,2.0,2.0,7,0.00,,,0.00,Wunderground v.1.15,2013-06-21 01:15:00,
2013-06-20 19:25:00,72.1,4.5,29.31,North,355,1.0,11.0,7,0.00,,,0.00,Wunderground v.1.15,2013-06-21 01:25:00,
2013-06-20 19:30:00,71.9,4.4,29.31,SE,142,1.0,11.0,7,0.00,,,0.00,Wunderground v.1.15,2013-06-21 01:30:00,
2013-06-20 19:40:00,71.5,4.1,29.31,NW,310,1.0,11.0,7,0.00,,,0.00,Wunderground v.1.15,2013-06-21 01:40:00,
2013-06-20 19:45:00,71.4,4.0,29.32,WNW,301,1.0,1.0,7,0.00,,,0.00,Wunderground v.1.15,2013-06-21 01:45:00,
2013-06-20 19:50:00,71.3,3.9,29.32,NNE,15,1.0,11.0,7,0.00,,,0.00,Wunderground v.1.15,2013-06-21 01:50:00,
2013-06-20 19:55:00,71.1,3.8,29.32,South,174,1.0,11.0,7,0.00,,,0.00,Wunderground v.1.15,2013-06-21 01:55:00,
2013-06-20 20:00:00,71.0,3.7,29.32,South,186,1.0,1.0,7,0.00,,,0.00,Wunderground v.1.15,2013-06-21 02:00:00,
2013-06-20 20:05:00,70.6,3.4,29.32,SSE,150,1.0,5.0,7,0.00,,,0.00,Wunderground v.1.15,2013-06-21 02:05:00,
2013-06-20 20:10:00,70.4,6.2,29.32,SSE,166,1.0,1.0,8,0.00,,,0.00,Wunderground v.1.15,2013-06-21 02:10:00,
2013-06-20 20:15:00,69.9,5.8,29.32,NNE,25,1.0,11.0,8,0.00,,,0.00,Wunderground v.1.15,2013-06-21 02:15:00,
2013-06-20 20:30:00,69.3,5.4,29.32,West,263,0.0,11.0,8,0.00,,,0.00,Wunderground v.1.15,2013-06-21 02:30:00,
2013-06-20 20:35:00,69.0,5.1,29.32,East,79,0.0,11.0,8,0.00,,,0.00,Wunderground v.1.15,2013-06-21 02:35:00,
2013-06-20 20:40:00,68.8,7.6,29.32,WSW,240,0.0,11.0,9,0.00,,,0.00,Wunderground v.1.15,2013-06-21 02:40:00,
2013-06-20 20:45:00,68.5,7.4,29.33,WSW,240,0.0,11.0,9,0.00,,,0.00,Wunderground v.1.15,2013-06-21 02:45:00,
2013-06-20 20:55:00,67.7,9.1,29.33,NE,52,1.0,11.0,10,0.00,,,0.00,Wunderground v.1.15,2013-06-21 02:55:00,
2013-06-20 21:00:00,67.6,6.7,29.33,NE,42,0.0,11.0,9,0.00,,,0.00,Wunderground v.1.15,2013-06-21 03:00:00,
2013-06-20 21:05:00,67.4,6.5,29.33,NE,42,0.0,11.0,9,0.00,,,0.00,Wunderground v.1.15,2013-06-21 03:05:00,
2013-06-20 21:10:00,67.1,8.6,29.33,NE,38,0.0,11.0,10,0.00,,,0.00,Wunderground v.1.15,2013-06-21 03:10:00,
2013-06-20 21:15:00,66.3,10.1,29.34,NE,38,0.0,11.0,11,0.00,,,0.00,Wunderground v.1.15,2013-06-21 03:15:00,
2013-06-20 21:20:00,65.4,9.4,29.34,NE,38,0.0,11.0,11,0.00,,,0.00,Wunderground v.1.15,2013-06-21 03:20:00,
2013-06-20 21:25:00,64.3,8.6,29.34,NE,38,0.0,11.0,11,0.00,,,0.00,Wunderground v.1.15,2013-06-21 03:25:00,
2013-06-20 21:30:00,63.4,7.9,29.34,NE,38,0.0,11.0,11,0.00,,,0.00,Wunderground v.1.15,2013-06-21 03:30:00,
2013-06-20 21:35:00,62.5,9.1,29.35,NE,38,0.0,11.0,12,0.00,,,0.00,Wunderground v.1.15,2013-06-21 03:35:00,
2013-06-20 21:40:00,61.7,10.3,29.35,NE,38,0.0,11.0,13,0.00,,,0.00,Wunderground v.1.15,2013-06-21 03:40:00,
2013-06-20 21:45:00,61.0,9.7,29.35,NE,38,0.0,11.0,13,0.00,,,0.00,Wunderground v.1.15,2013-06-21 03:45:00,
2013-06-20 21:50:00,60.5,9.3,29.36,NE,38,0.0,11.0,13,0.00,,,0.00,Wunderground v.1.15,2013-06-21 03:50:00,
2013-06-20 21:55:00,60.0,10.6,29.36,NE,38,0.0,11.0,14,0.00,,,0.00,Wunderground v.1.15,2013-06-21 03:55:00,
2013-06-20 22:00:00,59.4,10.1,29.37,NE,38,0.0,11.0,14,0.00,,,0.00,Wunderground v.1.15,2013-06-21 04:00:00,
2013-06-20 22:05:00,58.8,9.6,29.37,NE,38,0.0,11.0,14,0.00,,,0.00,Wunderground v.1.15,2013-06-21 04:05:00,
2013-06-20 22:10:00,58.4,10.9,29.37,NE,38,0.0,11.0,15,0.00,,,0.00,Wunderground v.1.15,2013-06-21 04:10:00,
2013-06-20 22:15:00,57.8,10.4,29.37,NE,38,0.0,11.0,15,0.00,,,0.00,Wunderground v.1.15,2013-06-21 04:15:00,
2013-06-20 22:20:00,57.2,12.7,29.37,NE,38,0.0,11.0,17,0.00,,,0.00,Wunderground v.1.15,2013-06-21 04:20:00,
2013-06-20 22:25:00,56.7,10.9,29.37,NE,38,0.0,11.0,16,0.00,,,0.00,Wunderground v.1.15,2013-06-21 04:25:00,
2013-06-20 22:30:00,56.3,12.0,29.38,NE,38,0.0,11.0,17,0.00,,,0.00,Wunderground v.1.15,2013-06-21 04:30:00,
2013-06-20 22:35:00,55.9,11.6,29.38,NE,38,0.0,11.0,17,0.00,,,0.00,Wunderground v.1.15,2013-06-21 04:35:00,
2013-06-20 22:40:00,55.6,11.4,29.38,NE,38,0.0,11.0,17,0.00,,,0.00,Wunderground v.1.15,2013-06-21 04:40:00,
2013-06-20 22:45:00,55.4,12.5,29.38,NE,38,0.0,11.0,18,0.00,,,0.00,Wunderground v.1.15,2013-06-21 04:45:00,
2013-06-20 23:00:00,55.5,11.3,29.38,NE,38,0.0,11.0,17,0.00,,,0.00,Wunderground v.1.15,2013-06-21 05:00:00,
2013-06-20 23:05:00,55.8,12.9,29.38,NE,38,0.0,11.0,18,0.00,,,0.00,Wunderground v.1.15,2013-06-21 05:05:00,
2013-06-20 23:10:00,55.6,13.9,29.38,NE,38,0.0,11.0,19,0.00,,,0.00,Wunderground v.1.15,2013-06-21 05:10:00,
2013-06-20 23:15:00,55.2,13.6,29.38,NE,38,0.0,11.0,19,0.00,,,0.00,Wunderground v.1.15,2013-06-21 05:15:00,
2013-06-20 23:20:00,55.0,15.7,29.38,NE,38,0.0,11.0,21,0.00,,,0.00,Wunderground v.1.15,2013-06-21 05:20:00,
2013-06-20 23:25:00,54.8,16.6,29.38,NE,38,0.0,11.0,22,0.00,,,0.00,Wunderground v.1.15,2013-06-21 05:25:00,
2013-06-20 23:30:00,54.6,13.1,29.38,NE,38,0.0,11.0,19,0.00,,,0.00,Wunderground v.1.15,2013-06-21 05:30:00,
2013-06-20 23:35:00,54.6,13.1,29.38,NE,38,0.0,11.0,19,0.00,,,0.00,Wunderground v.1.15,2013-06-21 05:35:00,
2013-06-20 23:40:00,54.5,13.0,29.38,NE,38,0.0,11.0,19,0.00,,,0.00,Wunderground v.1.15,2013-06-21 05:40:00,
2013-06-20 23:50:00,54.1,13.9,29.38,NE,38,0.0,11.0,20,0.00,,,0.00,Wunderground v.1.15,2013-06-21 05:50:00,
2013-06-20 23:55:00,54.0,16.0,29.38,NE,38,0.0,11.0,22,0.00,,,0.00,Wunderground v.1.15,2013-06-21 05:55:00,